Miscellaneous Local Product
Issued by NWS North Platte, NE

Home | Current Version | Previous Version | Text Only | Print | Product List | Glossary On
Versions: 1 2 3 4 5 6 7 8 9 10 11 12 13 14 15 16 17 18 19 20 21 22 23 24 25 26 27 28 29 30 31 32 33 34 35 36 37 38 39 40 41 42 43 44 45 46 47 48 49 50
000
AXUS43 KLBF 251010
MISLBF


WESTERN AND NORTH CENTRAL NEBRASKA HOURLY WEATHER ROUNDUP
NATIONAL WEATHER SERVICE NORTH PLATTE NE
500 AM CDT THU AUG 25 2016

NOTE: "FAIR" INDICATES FEW OR NO CLOUDS BELOW 12,000 FEET WITH NO
SIGNIFICANT WEATHER AND/OR OBSTRUCTIONS TO VISIBILITY.

NOTE: STATIONS NOT REPORTING VARIABLES SUCH AS SKY/WEATHER OR
PRESSURE ARE PROVIDED BY RAWS AND APRS NETWORKS AND ARE NOT UNDER
NATIONAL WEATHER SERVICE QUALITY CONTROL.

...OBSERVATIONS IN AND NEAR THE EASTERN PANHANDLE OF NEBRASKA...

CITY           SKY/WX    TMP DP  RH WIND       PRES   REMARKS
PINE RIDGE     CLOUDY    52  48  86 NE3       30.25R
CHADRON        CLOUDY    54  47  77 NE5       30.25R
ALLIANCE       MOCLDY    49  47  93 CALM      30.23R
SIDNEY         CLEAR     43  39  86 W7        30.23S
CRESCENT LAKE    N/A     50  47  90 N7G15       N/A
$$

...OBSERVATIONS IN NORTHERN NEBRASKA AND FAR SOUTHERN SOUTH DAKOTA...

CITY           SKY/WX    TMP DP  RH WIND       PRES   REMARKS
WINNER         FAIR      56  49  77 NW7       30.18S
VALENTINE      PTCLDY    57  44  62 NW7       30.20R
THEDFORD       PTCLDY    52  50  93 W6        30.19S
AINSWORTH      PTCLDY    55  51  85 N8        30.19R
O`NEILL        CLOUDY    61  52  72 NW9       30.14S
ORD            MOCLDY    57  54  89 CALM      30.12S
BROKEN BOW     MOCLDY    53  53 100 N5        30.15S
VALENTINE NWR    N/A     54  50  86 NW6         N/A
BUTTE            N/A     58  50  76 N12G18      N/A
HALSEY           N/A     56  49  76 CALM        N/A
EWING            N/A     54  53  96 CALM        N/A
$$

...OBSERVATIONS IN SOUTHWEST NEBRASKA AND FAR NORTHEAST COLORADO...

CITY           SKY/WX    TMP DP  RH WIND       PRES   REMARKS
WRAY           FAIR      48  41  76 SW5       30.20S
HOLYOKE        FAIR      48  43  81 W5        30.20S
IMPERIAL       PTCLDY    53  46  77 CALM      30.18S
OGALLALA       PTCLDY    48  44  87 CALM      30.19S
NORTH PLATTE   CLOUDY    51  49  92 CALM      30.18R
MCCOOK         CLOUDY    56  52  86 W5        30.16S
LEXINGTON      MOCLDY    57  55  91 NW6       30.15R
STAPLETON        N/A     54  49  85 CALM        N/A
GOTHENBURG       N/A     57  50  77 CALM        N/A
CALLAWAY         N/A     53  51  95 NW5         N/A
$$

...OBSERVATIONS IN CENTRAL LINCOLN COUNTY AREA...

CITY           SKY/WX    TMP DP  RH WIND       PRES   REMARKS
N.P. AIRPORT   CLOUDY    51  49  92 CALM      30.18R
N.P. DOWNTOWN    N/A     55  50  83 CALM        N/A
N.P. HILLCREST   N/A     57  51  79 NE7         N/A
$$

...SOME OBSERVATIONS FROM AROUND THE REGION...

CITY           SKY/WX    TMP DP  RH WIND       PRES   REMARKS
DENVER         PTCLDY    51  39  63 S14       30.22S
LARAMIE        CLOUDY    45  44  97 SE9       30.28S
CHEYENNE       CLOUDY    46  43  89 NW7       30.28R
SCOTTSBLUFF    CLOUDY    52  49  89 NW5       30.23R
RAPID CITY     CLOUDY    55  41  59 NW14      30.23S
BISMARCK       CLOUDY    57  48  72 NW15G23   30.10R
PIERRE         CLEAR     56  47  71 NW10      30.16R
SIOUX FALLS    CLOUDY    60  55  83 NW6       30.09S
OMAHA          CLOUDY    60  57  89 N6        30.09S
GRAND ISLAND   CLOUDY    58  55  90 W5        30.13S
KANSAS CITY    LGT RAIN  71  68  90 W6        30.05R FOG
WICHITA        TSTM      71  67  87 E6        30.03F
OKLAHOMA CITY  PTCLDY    73  69  87 S9        30.04S
DALLAS         PTCLDY    80  71  74 SW12      30.04S
AMARILLO       CLOUDY    61  59  93 E9        30.14R
DODGE CITY     CLOUDY    61  60  97 N13       30.09S
HAYS           CLOUDY    61  52  72 NE15      30.08F
GOODLAND       MOCLDY    53  48  83 NE5       30.18S
$$




USA.gov is the U.S. government's official web portal to all federal, state and local government web resources and services.